Weather in Proletariy

Russia / Novgorod Oblast     58°26′14″N   31°42′29″E
temp.,
°C
wind,
m/s
gust,
m/s
humid.,
%
clouds,
%
prec.,
mm/h
press.,
hPa
HPBL,
m
17 may, tue
tue1700:00+5wnw31094100 0.0 1010272
03:00+4nw2897100 0.0 1010178
06:00+6nw2595100 0.0 1010206
09:00+8n3689100 0.1 1010671
12:00+10n5764100 0.3 10111320
15:00+9n686085 0.3 10121192
18:00+6n5985100 0.3 1014887
21:00+5nnw51091100 0.4 1015583
18 may, wed
wed1800:00+4nnw41189100 0.0 1016525
03:00+5nnw4108693 0.0 1017487
06:00+5nnw41080100 0.0 1018555
09:00+8nnw5760100 0.0 10201011
12:00+11nnw5747100 0.0 10201544
15:00+14wnw574054 0.0 10181921
18:00+14wnw594195 0.0 10171889
21:00+10wnw395099 0.0 1016290
19 may, thu
thu1900:00+7wnw286882 0.0 1016193
03:00+4nw288486 0.1 1016175
06:00+6wnw2786100 0.2 1017249
09:00+10n356352 0.2 1018909
12:00+13nnw4640100 0.0 10191892
15:00+15nnw463221 0.0 10192084
18:00+14n45335 0.0 10191834
21:00+7ne385192 0.0 1020208
20 may, fri
fri2000:00+5ene2453100 0.0 102076
03:00+3ese236595 0.0 102061
06:00+4e2670100 0.0 1020163
09:00+10ese3551100 0.0 1019624
12:00+13ese4438100 0.0 10171212
15:00+15se3437100 0.0 10141513
18:00+13e3647100 0.0 1012778
21:00+10e3861100 0.0 1012289
21 may, sat
sat2100:00+9e3106399 0.0 1011359
03:00+5ene310786 0.0 1011226
06:00+6ene310755 0.0 1012318
09:00+11e584439 0.0 10111061
12:00+15e573325 0.0 10101890
15:00+16e4531100 0.0 10092240
18:00+16e4536100 0.0 10082283
21:00+10ene3959100 0.0 1008221